Location: Unspecified
(0.0000°N, 0.0000°E)
Time: 03:38:15
(UTC+00:00)

XW-2D - Pass Details

Date: 11 December 2017
Orbit: 510 x 531 km, 97.5° (Epoch: 23 January)

Event Time Altitude Azimuth Distance (km) Brightness Sun altitude
Rises 05:14:54 0° 27° (NNE) 2,654 ? -8.8°
Reaches altitude 10° 05:17:10 10° 38° (NE) 1,766 ? -8.3°
Maximum altitude 05:20:34 31° 101° (E) 935 ? -7.5°
Drops below altitude 10° 05:23:59 10° 165° (SSE) 1,766 ? -6.7°
Sets 05:26:14 0° 175° (S) 2,653 ? -6.2°
